Location: Moosomin
(50.1436°N, 101.6668°W)
Time: 19:45:31
(UTC-06:00)

Starlink (trailer) - Visible Passes

Search period start: 22 July 2019 00:00
Search period end: 01 August 2019 00:00
Orbit: 548 x 551 km, 53.0° (Epoch: 22 July)

Date Brightness Start Highest point End Pass type
(mag) Time Alt. Az. Time Alt. Az. Time Alt. Az.
22 Jul 5.2 01:01:29 21° ESE 01:01:29 21° ESE 01:03:44 10° E visible
22 Jul 3.5 02:37:07 24° WSW 02:39:34 85° SSE 02:43:44 10° ENE visible
22 Jul 4.3 04:15:16 10° W 04:19:22 57° N 04:23:27 10° ENE visible
23 Jul 4.9 00:55:52 27° ESE 00:55:52 27° ESE 00:58:30 10° E visible
23 Jul 3.6 02:31:29 21° WSW 02:34:10 84° NNW 02:38:20 10° ENE visible
23 Jul 4.3 04:09:55 10° WNW 04:14:01 56° N 04:18:06 10° E visible
24 Jul 4.5 00:50:09 34° ESE 00:50:09 34° ESE 00:53:12 10° ENE visible
24 Jul 3.7 02:25:46 18° W 02:28:46 74° NNW 02:32:56 10° ENE visible
24 Jul 4.3 04:04:33 10° WNW 04:08:40 58° N 04:12:46 10° E visible
25 Jul 4.0 00:44:22 44° ESE 00:44:22 44° ESE 00:47:52 10° ENE visible
25 Jul 3.9 02:19:59 15° W 02:23:25 67° NNW 02:27:32 10° ENE visible
25 Jul 4.2 03:59:11 10° WNW 04:03:18 60° N 04:07:25 10° E visible
26 Jul 3.6 00:38:29 58° SE 00:38:29 58° SE 00:42:29 10° ENE visible
26 Jul 4.1 02:14:05 11° W 02:18:02 62° N 02:22:10 10° ENE visible
26 Jul 4.1 03:53:49 10° WNW 03:57:56 65° N 04:02:04 10° E visible
27 Jul 3.5 00:32:24 60° SSW 00:32:57 70° SSE 00:37:06 10° ENE visible
27 Jul 4.2 02:08:34 10° W 02:12:40 59° N 02:16:47 10° ENE visible
27 Jul 3.9 03:48:25 10° WNW 03:52:34 71° NNE 03:56:43 10° E visible
27 Jul 5.4 22:50:22 17° E 22:50:22 17° E 22:51:41 10° E visible
28 Jul 3.5 00:25:54 36° WSW 00:27:32 83° SSE 00:31:42 10° ENE visible
28 Jul 4.2 02:03:13 10° W 02:07:19 57° N 02:11:25 10° ENE visible
28 Jul 3.7 03:43:01 10° WNW 03:47:11 80° NNE 03:51:20 10° ESE visible
28 Jul 4.4 22:42:26 29° SSE 22:42:50 29° SE 22:46:26 10° E visible
29 Jul 3.6 00:17:57 10° WSW 00:22:07 85° NNW 00:26:18 10° ENE visible
29 Jul 4.3 01:57:52 10° W 02:01:58 56° N 02:06:04 10° E visible
29 Jul 3.6 03:37:37 10° WNW 03:41:47 90° SSE 03:45:56 10° ESE visible
29 Jul 4.1 22:33:29 10° SSW 22:37:18 37° SE 22:41:08 10° ENE visible
30 Jul 3.7 00:12:34 10° WSW 00:16:44 76° NNW 00:20:53 10° ENE visible
30 Jul 4.2 01:52:30 10° WNW 01:56:36 57° N 02:00:42 10° E visible
30 Jul 3.5 03:32:12 10° WNW 03:36:22 77° SSW 03:40:30 10° ESE visible
30 Jul 3.8 22:27:51 10° SW 22:31:49 45° SSE 22:35:48 10° ENE visible
31 Jul 3.9 00:07:12 10° W 00:11:20 68° NNW 00:15:29 10° ENE visible
31 Jul 4.1 01:47:07 10° WNW 01:51:15 60° N 01:55:21 10° E visible
31 Jul 3.5 03:26:48 10° WNW 03:30:56 65° SSW 03:35:01 10° SE visible
31 Jul 3.6 22:22:16 10° SW 22:26:20 56° SSE 22:30:25 10° ENE visible
